When you browse on this site, cookies collect data to enhance your experience and personalize the content and advertising you see.
Visit our Privacy Policy to learn more. By continuing to use the site, you agree to this use of cookies and data.

Hourly Weather Shevchenko

Today, 15 August, Saturday

Time Temperature Precipitation Wind Pressure Humidity
00:00 +17°C° 0 mm 3 mps 756 mmHg 60%
01:00 +16°C° 0 mm 3 mps 756 mmHg 65%
02:00 +16°C° 0 mm 3 mps 756 mmHg 69%
03:00 +14°C° 0 mm 3 mps 756 mmHg 74%
04:00 +14°C° 0 mm 3 mps 757 mmHg 74%
05:00 +14°C° 0 mm 3 mps 757 mmHg 75%
06:00 +13°C° 0 mm 3 mps 757 mmHg 75%
07:00 +15°C° 0 mm 4 mps 757 mmHg 66%
08:00 +18°C° 0 mm 4 mps 757 mmHg 56%
09:00 +20°C° 0 mm 5 mps 758 mmHg 47%
10:00 +21°C° 0 mm 5 mps 758 mmHg 43%
11:00 +22°C° 0 mm 4 mps 758 mmHg 39%
12:00 +23°C° 0 mm 4 mps 758 mmHg 35%
13:00 +25°C° 0 mm 4 mps 758 mmHg 33%
14:00 +25°C° 0 mm 5 mps 758 mmHg 31%
15:00 +26°C° 0 mm 5 mps 758 mmHg 30%
16:00 +25°C° 0 mm 5 mps 758 mmHg 32%
17:00 +23°C° 0 mm 4 mps 757 mmHg 33%
18:00 +23°C° 0 mm 4 mps 757 mmHg 35%
19:00 +21°C° 0 mm 4 mps 758 mmHg 40%
20:00 +19°C° 0 mm 3 mps 758 mmHg 45%
21:00 +17°C° 0 mm 2 mps 758 mmHg 50%
22:00 +17°C° 0 mm 2 mps 758 mmHg 52%
23:00 +16°C° 0 mm 2 mps 758 mmHg 53%

Tomorrow, 16 August, Sunday

Time Temperature Precipitation Wind Pressure Humidity
00:00 +16°C° 0 mm 2 mps 758 mmHg 55%
01:00 +15°C° 0 mm 2 mps 758 mmHg 57%
02:00 +15°C° 0 mm 2 mps 758 mmHg 58%
03:00 +14°C° 0 mm 2 mps 758 mmHg 60%
04:00 +14°C° 0 mm 2 mps 758 mmHg 60%
05:00 +14°C° 0 mm 1 mps 758 mmHg 60%
06:00 +14°C° 0 mm 1 mps 758 mmHg 60%
07:00 +16°C° 0 mm 1 mps 758 mmHg 54%
08:00 +19°C° 0 mm 1 mps 758 mmHg 47%
09:00 +20°C° 0 mm 2 mps 758 mmHg 41%
10:00 +21°C° 0 mm 2 mps 758 mmHg 37%
11:00 +23°C° 0 mm 2 mps 758 mmHg 34%
12:00 +25°C° 0 mm 2 mps 758 mmHg 31%
13:00 +25°C° 0 mm 3 mps 758 mmHg 31%
14:00 +25°C° 0 mm 3 mps 758 mmHg 30%
15:00 +25°C° 0 mm 3 mps 758 mmHg 30%
16:00 +25°C° 0 mm 3 mps 758 mmHg 32%
17:00 +25°C° 0 mm 3 mps 757 mmHg 33%
18:00 +25°C° 0 mm 3 mps 757 mmHg 35%
19:00 +22°C° 0 mm 3 mps 758 mmHg 39%
20:00 +20°C° 0 mm 2 mps 758 mmHg 44%
21:00 +19°C° 0 mm 2 mps 758 mmHg 49%
22:00 +18°C° 0 mm 2 mps 758 mmHg 50%
23:00 +19°C° 0 mm 1 mps 758 mmHg 52%

Day after tomorrow, 17 August, Monday

Time Temperature Precipitation Wind Pressure Humidity
00:00 +19°C° 0 mm 1 mps 758 mmHg 53%
01:00 +19°C° 0 mm 1 mps 758 mmHg 54%
02:00 +19°C° 0 mm 1 mps 758 mmHg 54%
03:00 +19°C° 0 mm 1 mps 758 mmHg 55%
04:00 +18°C° 0 mm 1 mps 758 mmHg 56%
05:00 +18°C° 0 mm 1 mps 758 mmHg 58%
06:00 +18°C° 0 mm 1 mps 758 mmHg 59%
07:00 +20°C° 0 mm 1 mps 758 mmHg 53%
08:00 +22°C° 0 mm 1 mps 758 mmHg 48%
09:00 +24°C° 0 mm 1 mps 758 mmHg 42%
10:00 +25°C° 0 mm 1 mps 758 mmHg 40%
11:00 +26°C° 0 mm 1 mps 758 mmHg 37%
12:00 +28°C° 0 mm 2 mps 758 mmHg 35%
13:00 +28°C° 0 mm 2 mps 758 mmHg 33%
14:00 +29°C° 0 mm 2 mps 757 mmHg 31%
15:00 +30°C° 0 mm 2 mps 757 mmHg 29%
16:00 +29°C° 0 mm 2 mps 757 mmHg 30%
17:00 +29°C° 0 mm 2 mps 757 mmHg 31%
18:00 +29°C° 0 mm 2 mps 756 mmHg 32%
19:00 +27°C° 0 mm 2 mps 757 mmHg 37%
20:00 +25°C° 0 mm 1 mps 757 mmHg 42%
21:00 +23°C° 0 mm 1 mps 757 mmHg 47%
22:00 +23°C° 0 mm 1 mps 757 mmHg 50%
23:00 +22°C° 0 mm 1 mps 757 mmHg 52%

18 August, Tuesday

Time Temperature Precipitation Wind Pressure Humidity
00:00 +21°C° 0 mm 1 mps 757 mmHg 55%
01:00 +21°C° 0 mm 1 mps 757 mmHg 56%
02:00 +21°C° 0 mm 1 mps 757 mmHg 57%
03:00 +20°C° 0 mm 1 mps 757 mmHg 59%
04:00 +18°C° 0 mm 0 mps 757 mmHg 59%
05:00 +18°C° 0 mm 0 mps 756 mmHg 59%
06:00 +18°C° 0 mm 0 mps 756 mmHg 59%
07:00 +21°C° 0 mm 0 mps 756 mmHg 52%
08:00 +25°C° 0 mm 1 mps 756 mmHg 45%
09:00 +28°C° 0 mm 1 mps 756 mmHg 38%
10:00 +29°C° 0 mm 1 mps 756 mmHg 36%
11:00 +30°C° 0 mm 1 mps 756 mmHg 33%
12:00 +32°C° 0 mm 1 mps 756 mmHg 30%
13:00 +32°C° 0 mm 1 mps 755 mmHg 29%
14:00 +33°C° 0 mm 1 mps 755 mmHg 28%
15:00 +33°C° 0 mm 1 mps 755 mmHg 26%
16:00 +33°C° 0 mm 1 mps 755 mmHg 27%
17:00 +32°C° 0 mm 1 mps 754 mmHg 28%
18:00 +32°C° 0 mm 1 mps 754 mmHg 29%
19:00 +30°C° 0 mm 2 mps 754 mmHg 33%
20:00 +28°C° 0 mm 2 mps 754 mmHg 37%
21:00 +27°C° 0 mm 2 mps 755 mmHg 40%
22:00 +26°C° 0 mm 2 mps 755 mmHg 42%
23:00 +26°C° 0 mm 2 mps 755 mmHg 44%

19 August, Wednesday

Time Temperature Precipitation Wind Pressure Humidity
00:00 +25°C° 0 mm 3 mps 755 mmHg 46%
01:00 +25°C° 0 mm 2 mps 755 mmHg 48%
02:00 +25°C° 0 mm 2 mps 754 mmHg 49%
03:00 +25°C° 0 mm 2 mps 754 mmHg 51%
04:00 +25°C° 0 mm 2 mps 754 mmHg 51%
05:00 +25°C° 0 mm 1 mps 754 mmHg 51%
06:00 +24°C° 0 mm 1 mps 754 mmHg 52%
07:00 +26°C° 0 mm 1 mps 754 mmHg 46%
08:00 +28°C° 0 mm 1 mps 754 mmHg 41%
09:00 +30°C° 0 mm 1 mps 755 mmHg 36%
10:00 +31°C° 0 mm 1 mps 754 mmHg 33%
11:00 +32°C° 0 mm 1 mps 754 mmHg 30%
12:00 +33°C° 0 mm 1 mps 754 mmHg 28%
13:00 +33°C° 0 mm 1 mps 754 mmHg 27%
14:00 +33°C° 0 mm 1 mps 754 mmHg 27%
15:00 +34°C° 0 mm 2 mps 754 mmHg 26%
16:00 +34°C° 0 mm 2 mps 754 mmHg 27%
17:00 +34°C° 0 mm 2 mps 754 mmHg 27%
18:00 +32°C° 0 mm 2 mps 753 mmHg 28%
19:00 +31°C° 0 mm 3 mps 754 mmHg 31%
20:00 +29°C° 0 mm 3 mps 754 mmHg 35%
21:00 +27°C° 0 mm 3 mps 754 mmHg 39%
22:00 +27°C° 0 mm 3 mps 754 mmHg 41%
23:00 +26°C° 0 mm 3 mps 754 mmHg 43%

20 August, Thursday

Time Temperature Precipitation Wind Pressure Humidity
00:00 +25°C° 0 mm 3 mps 754 mmHg 45%
01:00 +25°C° 0 mm 3 mps 754 mmHg 45%
02:00 +24°C° 0 mm 2 mps 754 mmHg 46%
03:00 +24°C° 0 mm 2 mps 753 mmHg 46%
04:00 +24°C° 0 mm 2 mps 754 mmHg 47%
05:00 +23°C° 0 mm 1 mps 754 mmHg 47%
06:00 +23°C° 0 mm 1 mps 754 mmHg 47%
07:00 +26°C° 0 mm 1 mps 754 mmHg 41%
08:00 +28°C° 0 mm 1 mps 754 mmHg 36%
09:00 +30°C° 0 mm 1 mps 754 mmHg 30%
10:00 +32°C° 0 mm 2 mps 753 mmHg 27%
11:00 +34°C° 0 mm 2 mps 753 mmHg 24%
12:00 +36°C° 0 mm 2 mps 753 mmHg 21%
13:00 +36°C° 0 mm 2 mps 753 mmHg 21%
14:00 +37°C° 0 mm 2 mps 753 mmHg 20%
15:00 +37°C° 0 mm 2 mps 752 mmHg 19%
16:00 +37°C° 0 mm 2 mps 752 mmHg 19%
17:00 +36°C° 0 mm 2 mps 752 mmHg 20%
18:00 +36°C° 0 mm 2 mps 752 mmHg 20%
19:00 +34°C° 0 mm 2 mps 752 mmHg 23%
20:00 +31°C° 0 mm 3 mps 752 mmHg 26%
21:00 +29°C° 0 mm 3 mps 752 mmHg 28%
22:00 +29°C° 0 mm 3 mps 752 mmHg 29%
23:00 +28°C° 0 mm 3 mps 752 mmHg 30%
Show more